Time,TemperatureF,DewpointF,PressureIn,WindDirection,WindDirectionDegrees,WindSpeedMPH,WindSpeedGustMPH,Humidity,HourlyPrecipIn,Conditions,Clouds,dailyrainin,SoftwareType,DateUTC
2013-03-09 00:03:00,30.0,30.0,-100.00,SE,125,0.0,0.0,99,0.00,,,-99.99,,2013-03-09 05:03:00,
2013-03-09 00:12:00,30.0,30.0,-100.00,SE,125,0.0,0.0,99,0.00,,,-99.99,,2013-03-09 05:12:00,
2013-03-09 00:22:00,30.0,30.0,-100.00,SSE,155,0.0,1.0,99,0.00,,,-99.99,,2013-03-09 05:22:00,
2013-03-09 00:32:00,30.0,30.0,-100.00,SE,140,1.0,2.0,99,0.00,,,-99.99,,2013-03-09 05:32:00,
2013-03-09 00:42:00,29.0,29.0,-100.00,SE,140,1.0,2.0,99,0.00,,,-99.99,,2013-03-09 05:42:00,
2013-03-09 00:52:00,29.0,29.0,-100.00,ESE,115,1.0,1.0,99,0.00,,,-99.99,,2013-03-09 05:52:00,
2013-03-09 01:02:00,29.0,29.0,-100.00,SE,140,1.0,2.0,99,0.00,,,-99.99,,2013-03-09 06:02:00,
2013-03-09 01:11:00,29.0,29.0,-100.00,SE,140,1.0,1.0,99,0.00,,,-99.99,,2013-03-09 06:11:00,
2013-03-09 01:22:00,29.0,29.0,-100.00,SE,145,2.0,2.0,99,0.00,,,-99.99,,2013-03-09 06:22:00,
2013-03-09 01:32:00,29.0,29.0,-100.00,SE,140,0.0,2.0,99,0.00,,,-99.99,,2013-03-09 06:32:00,
2013-03-09 01:42:00,29.0,29.0,-100.00,SE,145,1.0,2.0,99,0.00,,,-99.99,,2013-03-09 06:42:00,
2013-03-09 01:51:00,29.0,28.0,-100.00,SE,145,2.0,2.0,99,0.00,,,-99.99,,2013-03-09 06:51:00,
2013-03-09 02:01:00,28.0,28.0,-100.00,ESE,115,1.0,2.0,99,0.00,,,-99.99,,2013-03-09 07:01:00,
2013-03-09 02:11:00,29.0,29.0,-100.00,SE,130,1.0,1.0,99,0.00,,,-99.99,,2013-03-09 07:11:00,
2013-03-09 02:21:00,29.0,29.0,-100.00,SE,145,1.0,1.0,99,0.00,,,-99.99,,2013-03-09 07:21:00,
2013-03-09 02:32:00,28.0,28.0,-100.00,SE,125,0.0,1.0,99,0.00,,,-99.99,,2013-03-09 07:32:00,
2013-03-09 02:42:00,29.0,28.0,-100.00,SSE,155,2.0,2.0,99,0.00,,,-99.99,,2013-03-09 07:42:00,
2013-03-09 02:52:00,29.0,29.0,-100.00,SE,140,1.0,3.0,99,0.00,,,-99.99,,2013-03-09 07:52:00,
2013-03-09 03:01:00,29.0,28.0,-100.00,SSE,160,1.0,2.0,99,0.00,,,-99.99,,2013-03-09 08:01:00,
2013-03-09 03:11:00,29.0,29.0,-100.00,SE,145,1.0,3.0,99,0.00,,,-99.99,,2013-03-09 08:11:00,
2013-03-09 03:22:00,28.0,28.0,-100.00,SSE,150,2.0,2.0,99,0.00,,,-99.99,,2013-03-09 08:22:00,
2013-03-09 03:32:00,29.0,29.0,-100.00,SE,145,1.0,3.0,99,0.00,,,-99.99,,2013-03-09 08:32:00,
2013-03-09 03:42:00,28.0,28.0,-100.00,SE,130,1.0,2.0,99,0.00,,,-99.99,,2013-03-09 08:42:00,
2013-03-09 03:52:00,28.0,28.0,-100.00,SE,130,1.0,2.0,99,0.00,,,-99.99,,2013-03-09 08:52:00,
2013-03-09 04:02:00,28.0,28.0,-100.00,SE,140,1.0,2.0,99,0.00,,,-99.99,,2013-03-09 09:02:00,
2013-03-09 04:12:00,28.0,28.0,-100.00,SE,140,1.0,2.0,99,0.00,,,-99.99,,2013-03-09 09:12:00,
2013-03-09 04:21:00,28.0,28.0,-100.00,SSE,160,1.0,1.0,99,0.00,,,-99.99,,2013-03-09 09:21:00,
2013-03-09 04:32:00,28.0,28.0,-100.00,SSE,160,1.0,3.0,99,0.00,,,-99.99,,2013-03-09 09:32:00,
2013-03-09 04:42:00,29.0,28.0,-100.00,SE,140,1.0,3.0,99,0.00,,,-99.99,,2013-03-09 09:42:00,
2013-03-09 04:52:00,28.0,28.0,-100.00,ESE,115,0.0,2.0,99,0.00,,,-99.99,,2013-03-09 09:52:00,
2013-03-09 05:01:00,28.0,28.0,-100.00,ESE,115,0.0,0.0,99,0.00,,,-99.99,,2013-03-09 10:01:00,
2013-03-09 05:11:00,28.0,28.0,-100.00,SSE,150,1.0,2.0,99,0.00,,,-99.99,,2013-03-09 10:11:00,
2013-03-09 05:21:00,28.0,28.0,-100.00,SSE,150,2.0,2.0,99,0.00,,,-99.99,,2013-03-09 10:21:00,
2013-03-09 05:32:00,27.0,27.0,-100.00,SE,140,1.0,2.0,99,0.00,,,-99.99,,2013-03-09 10:32:00,
2013-03-09 05:42:00,27.0,27.0,-100.00,SE,135,1.0,2.0,99,0.00,,,-99.99,,2013-03-09 10:42:00,
2013-03-09 05:52:00,27.0,27.0,-100.00,SSE,150,2.0,2.0,99,0.00,,,-99.99,,2013-03-09 10:52:00,
2013-03-09 06:01:00,27.0,27.0,-100.00,SE,145,2.0,2.0,99,0.00,,,-99.99,,2013-03-09 11:01:00,
2013-03-09 06:11:00,27.0,27.0,-100.00,SE,145,1.0,2.0,99,0.00,,,-99.99,,2013-03-09 11:11:00,
2013-03-09 06:21:00,27.0,27.0,-100.00,SE,145,1.0,2.0,99,0.00,,,-99.99,,2013-03-09 11:21:00,
2013-03-09 06:32:00,27.0,27.0,-100.00,SE,135,1.0,2.0,99,0.00,,,-99.99,,2013-03-09 11:32:00,
2013-03-09 06:42:00,27.0,27.0,-100.00,SE,135,1.0,2.0,99,0.00,,,-99.99,,2013-03-09 11:42:00,
2013-03-09 06:52:00,27.0,27.0,-100.00,SE,130,0.0,0.0,99,0.00,,,-99.99,,2013-03-09 11:52:00,
2013-03-09 07:02:00,27.0,26.0,-100.00,SE,145,1.0,2.0,99,0.00,,,-99.99,,2013-03-09 12:02:00,
2013-03-09 07:11:00,27.0,27.0,-100.00,SE,140,1.0,2.0,99,0.00,,,-99.99,,2013-03-09 12:11:00,
2013-03-09 07:21:00,26.0,26.0,-100.00,SSE,150,1.0,3.0,99,0.00,,,-99.99,,2013-03-09 12:21:00,
2013-03-09 07:32:00,27.0,27.0,-100.00,SE,145,1.0,1.0,99,0.00,,,-99.99,,2013-03-09 12:32:00,
2013-03-09 07:42:00,28.0,27.0,-100.00,SE,145,1.0,1.0,99,0.00,,,-99.99,,2013-03-09 12:42:00,
2013-03-09 07:52:00,28.0,28.0,-100.00,ESE,120,2.0,2.0,99,0.00,,,-99.99,,2013-03-09 12:52:00,
2013-03-09 08:02:00,29.0,29.0,-100.00,SE,125,1.0,2.0,99,0.00,,,-99.99,,2013-03-09 13:02:00,
2013-03-09 08:11:00,31.0,31.0,-100.00,SSE,150,0.0,2.0,99,0.00,,,-99.99,,2013-03-09 13:11:00,
2013-03-09 08:21:00,33.0,32.0,-100.00,SE,145,0.0,0.0,99,0.00,,,-99.99,,2013-03-09 13:21:00,
2013-03-09 08:32:00,34.0,34.0,-100.00,ESE,110,0.0,0.0,99,0.00,,,-99.99,,2013-03-09 13:32:00,
2013-03-09 08:42:00,35.0,35.0,-100.00,East,95,0.0,1.0,99,0.00,,,-99.99,,2013-03-09 13:42:00,
2013-03-09 08:52:00,37.0,37.0,-100.00,ENE,75,0.0,2.0,99,0.00,,,-99.99,,2013-03-09 13:52:00,
2013-03-09 09:01:00,37.0,37.0,-100.00,ENE,60,0.0,2.0,99,0.00,,,-99.99,,2013-03-09 14:01:00,
2013-03-09 09:11:00,38.0,38.0,-100.00,SE,145,1.0,4.0,99,0.00,,,-99.99,,2013-03-09 14:11:00,
2013-03-09 09:21:00,40.0,40.0,-100.00,East,80,0.0,2.0,99,0.00,,,-99.99,,2013-03-09 14:21:00,
2013-03-09 09:32:00,40.0,40.0,-100.00,East,85,1.0,5.0,99,0.00,,,-99.99,,2013-03-09 14:32:00,
2013-03-09 09:42:00,40.0,40.0,-100.00,East,80,2.0,4.0,99,0.00,,,-99.99,,2013-03-09 14:42:00,
2013-03-09 09:52:00,41.0,41.0,-100.00,ENE,65,1.0,6.0,99,0.00,,,-99.99,,2013-03-09 14:52:00,
2013-03-09 10:02:00,41.0,41.0,-100.00,ENE,70,4.0,6.0,98,0.00,,,-99.99,,2013-03-09 15:02:00,
2013-03-09 10:12:00,42.0,41.0,-100.00,East,85,2.0,6.0,95,0.00,,,-99.99,,2013-03-09 15:12:00,
2013-03-09 10:22:00,42.0,40.0,-100.00,ENE,70,3.0,6.0,89,0.00,,,-99.99,,2013-03-09 15:22:00,
2013-03-09 10:32:00,44.0,38.0,-100.00,SE,130,1.0,6.0,82,0.00,,,-99.99,,2013-03-09 15:32:00,
2013-03-09 10:42:00,45.0,39.0,-100.00,ESE,120,0.0,6.0,78,0.00,,,-99.99,,2013-03-09 15:42:00,
2013-03-09 10:52:00,46.0,40.0,-100.00,ENE,65,1.0,7.0,79,0.00,,,-99.99,,2013-03-09 15:52:00,
2013-03-09 11:01:00,46.0,39.0,-100.00,SE,145,1.0,9.0,76,0.00,,,-99.99,,2013-03-09 16:01:00,
2013-03-09 11:11:00,46.0,37.0,-100.00,ESE,110,1.0,9.0,68,0.00,,,-99.99,,2013-03-09 16:11:00,
2013-03-09 11:21:00,47.0,35.0,-100.00,South,185,6.0,10.0,63,0.00,,,-99.99,,2013-03-09 16:21:00,
2013-03-09 11:32:00,48.0,34.0,-100.00,East,100,1.0,8.0,59,0.00,,,-99.99,,2013-03-09 16:32:00,
2013-03-09 11:42:00,48.0,34.0,-100.00,ESE,110,2.0,7.0,56,0.00,,,-99.99,,2013-03-09 16:42:00,
2013-03-09 11:51:00,49.0,33.0,-100.00,ENE,60,3.0,8.0,54,0.00,,,-99.99,,2013-03-09 16:51:00,
2013-03-09 12:01:00,49.0,33.0,-100.00,ENE,60,3.0,8.0,54,0.00,,,-99.99,,2013-03-09 17:01:00,
2013-03-09 12:11:00,50.0,33.0,-100.00,East,90,0.0,9.0,51,0.00,,,-99.99,,2013-03-09 17:11:00,
2013-03-09 12:22:00,51.0,32.0,-100.00,ENE,60,2.0,6.0,48,0.00,,,-99.99,,2013-03-09 17:22:00,
2013-03-09 12:32:00,51.0,32.0,-100.00,SE,145,4.0,9.0,48,0.00,,,-99.99,,2013-03-09 17:32:00,
2013-03-09 12:42:00,51.0,32.0,-100.00,SE,145,4.0,9.0,48,0.00,,,-99.99,,2013-03-09 17:42:00,
2013-03-09 12:52:00,51.0,31.0,-100.00,East,90,4.0,8.0,47,0.00,,,-99.99,,2013-03-09 17:52:00,
2013-03-09 13:02:00,52.0,32.0,-100.00,South,170,1.0,6.0,46,0.00,,,-99.99,,2013-03-09 18:02:00,
2013-03-09 13:11:00,52.0,32.0,-100.00,SSE,165,3.0,7.0,46,0.00,,,-99.99,,2013-03-09 18:11:00,
2013-03-09 13:22:00,53.0,32.0,-100.00,SSW,205,2.0,7.0,44,0.00,,,-99.99,,2013-03-09 18:22:00,
2013-03-09 13:32:00,52.0,32.0,-100.00,SSE,160,4.0,11.0,45,0.00,,,-99.99,,2013-03-09 18:32:00,
2013-03-09 13:42:00,53.0,33.0,-100.00,SE,135,2.0,10.0,45,0.00,,,-99.99,,2013-03-09 18:42:00,
2013-03-09 13:52:00,53.0,31.0,-100.00,East,100,2.0,7.0,42,0.00,,,-99.99,,2013-03-09 18:52:00,
2013-03-09 14:02:00,53.0,32.0,-100.00,East,85,2.0,5.0,44,0.00,,,-99.99,,2013-03-09 19:02:00,
2013-03-09 14:11:00,54.0,33.0,-100.00,SE,130,4.0,7.0,44,0.00,,,-99.99,,2013-03-09 19:11:00,
2013-03-09 14:22:00,55.0,32.0,-100.00,East,85,2.0,6.0,41,0.00,,,-99.99,,2013-03-09 19:22:00,
2013-03-09 14:32:00,55.0,34.0,-100.00,ENE,65,4.0,9.0,44,0.00,,,-99.99,,2013-03-09 19:32:00,
2013-03-09 14:42:00,55.0,33.0,-100.00,East,90,5.0,8.0,44,0.00,,,-99.99,,2013-03-09 19:42:00,
2013-03-09 14:52:00,56.0,34.0,-100.00,East,85,1.0,6.0,44,0.00,,,-99.99,,2013-03-09 19:52:00,
2013-03-09 15:01:00,56.0,33.0,-100.00,ENE,60,4.0,9.0,42,0.00,,,-99.99,,2013-03-09 20:01:00,
2013-03-09 15:11:00,56.0,33.0,-100.00,SSE,160,2.0,5.0,41,0.00,,,-99.99,,2013-03-09 20:11:00,
2013-03-09 15:22:00,57.0,34.0,-100.00,South,180,1.0,6.0,41,0.00,,,-99.99,,2013-03-09 20:22:00,
2013-03-09 15:32:00,58.0,34.0,-100.00,South,175,2.0,6.0,40,0.00,,,-99.99,,2013-03-09 20:32:00,
2013-03-09 15:42:00,54.0,36.0,-100.00,North,355,3.0,7.0,50,0.00,,,-99.99,,2013-03-09 20:42:00,
2013-03-09 15:52:00,53.0,36.0,-100.00,North,0,4.0,7.0,52,0.00,,,-99.99,,2013-03-09 20:52:00,
2013-03-09 16:02:00,54.0,36.0,-100.00,North,0,4.0,7.0,51,0.00,,,-99.99,,2013-03-09 21:02:00,
2013-03-09 16:12:00,53.0,36.0,-100.00,NNW,330,2.0,6.0,52,0.00,,,-99.99,,2013-03-09 21:12:00,
2013-03-09 16:22:00,54.0,37.0,-100.00,NNW,345,4.0,6.0,54,0.00,,,-99.99,,2013-03-09 21:22:00,
2013-03-09 16:32:00,54.0,37.0,-100.00,North,355,2.0,6.0,51,0.00,,,-99.99,,2013-03-09 21:32:00,
2013-03-09 16:42:00,54.0,37.0,-100.00,North,5,1.0,6.0,51,0.00,,,-99.99,,2013-03-09 21:42:00,
2013-03-09 16:52:00,54.0,38.0,-100.00,NNW,345,2.0,6.0,54,0.00,,,-99.99,,2013-03-09 21:52:00,
2013-03-09 17:01:00,53.0,37.0,-100.00,NW,325,2.0,4.0,54,0.00,,,-99.99,,2013-03-09 22:01:00,
2013-03-09 17:11:00,53.0,37.0,-100.00,North,350,2.0,6.0,55,0.00,,,-99.99,,2013-03-09 22:11:00,
2013-03-09 17:21:00,53.0,37.0,-100.00,North,355,0.0,4.0,54,0.00,,,-99.99,,2013-03-09 22:21:00,
2013-03-09 17:32:00,54.0,37.0,-100.00,NNW,335,0.0,6.0,53,0.00,,,-99.99,,2013-03-09 22:32:00,
2013-03-09 17:42:00,54.0,37.0,-100.00,NNW,335,0.0,6.0,53,0.00,,,-99.99,,2013-03-09 22:42:00,
2013-03-09 17:51:00,55.0,35.0,-100.00,NE,35,0.0,2.0,47,0.00,,,-99.99,,2013-03-09 22:51:00,
2013-03-09 18:01:00,55.0,34.0,-100.00,SE,130,0.0,6.0,45,0.00,,,-99.99,,2013-03-09 23:01:00,
2013-03-09 18:11:00,55.0,34.0,-100.00,SE,135,2.0,6.0,44,0.00,,,-99.99,,2013-03-09 23:11:00,
2013-03-09 18:22:00,55.0,33.0,-100.00,ESE,110,1.0,5.0,44,0.00,,,-99.99,,2013-03-09 23:22:00,
2013-03-09 18:32:00,54.0,34.0,-100.00,ENE,70,1.0,3.0,46,0.00,,,-99.99,,2013-03-09 23:32:00,
2013-03-09 18:42:00,54.0,33.0,-100.00,East,90,1.0,3.0,44,0.00,,,-99.99,,2013-03-09 23:42:00,
2013-03-09 18:52:00,54.0,33.0,-100.00,ENE,70,1.0,4.0,45,0.00,,,-99.99,,2013-03-09 23:52:00,
2013-03-09 19:02:00,53.0,34.0,-100.00,East,90,0.0,4.0,47,0.00,,,-99.99,,2013-03-10 00:02:00,
2013-03-09 19:11:00,53.0,34.0,-100.00,ESE,115,1.0,4.0,48,0.00,,,-99.99,,2013-03-10 00:11:00,
2013-03-09 19:22:00,53.0,33.0,-100.00,ENE,70,0.0,3.0,47,0.00,,,-99.99,,2013-03-10 00:22:00,
2013-03-09 19:32:00,52.0,34.0,-100.00,East,85,0.0,2.0,49,0.00,,,-99.99,,2013-03-10 00:32:00,
2013-03-09 19:42:00,51.0,34.0,-100.00,ESE,110,0.0,4.0,50,0.00,,,-99.99,,2013-03-10 00:42:00,
2013-03-09 19:52:00,51.0,34.0,-100.00,ESE,110,2.0,4.0,52,0.00,,,-99.99,,2013-03-10 00:52:00,
2013-03-09 20:01:00,51.0,34.0,-100.00,SE,145,0.0,4.0,52,0.00,,,-99.99,,2013-03-10 01:01:00,
2013-03-09 20:11:00,51.0,34.0,-100.00,East,95,0.0,4.0,51,0.00,,,-99.99,,2013-03-10 01:11:00,
2013-03-09 20:21:00,51.0,34.0,-100.00,ESE,110,1.0,4.0,52,0.00,,,-99.99,,2013-03-10 01:21:00,
2013-03-09 20:32:00,51.0,33.0,-100.00,SE,125,4.0,10.0,50,0.00,,,-99.99,,2013-03-10 01:32:00,
2013-03-09 20:42:00,51.0,34.0,-100.00,SE,135,2.0,10.0,53,0.00,,,-99.99,,2013-03-10 01:42:00,
2013-03-09 20:52:00,51.0,34.0,-100.00,ESE,115,2.0,7.0,51,0.00,,,-99.99,,2013-03-10 01:52:00,
2013-03-09 21:01:00,51.0,34.0,-100.00,ESE,120,2.0,6.0,52,0.00,,,-99.99,,2013-03-10 02:01:00,
2013-03-09 21:11:00,51.0,34.0,-100.00,ESE,120,2.0,6.0,52,0.00,,,-99.99,,2013-03-10 02:11:00,
2013-03-09 21:22:00,51.0,33.0,-100.00,SE,130,3.0,6.0,50,0.00,,,-99.99,,2013-03-10 02:22:00,
2013-03-09 21:32:00,52.0,33.0,-100.00,SE,130,4.0,9.0,48,0.00,,,-99.99,,2013-03-10 02:32:00,
2013-03-09 21:42:00,52.0,33.0,-100.00,SE,145,4.0,9.0,47,0.00,,,-99.99,,2013-03-10 02:42:00,
2013-03-09 21:50:00,52.0,32.0,-100.00,SSE,160,4.0,11.0,46,0.00,,,-99.99,,2013-03-10 02:50:00,
2013-03-09 21:52:00,51.0,33.0,-100.00,SE,125,4.0,8.0,48,0.00,,,-99.99,,2013-03-10 02:52:00,
2013-03-09 22:02:00,52.0,33.0,-100.00,SE,145,5.0,9.0,47,0.00,,,-99.99,,2013-03-10 03:02:00,
2013-03-09 22:11:00,52.0,32.0,-100.00,SSE,160,4.0,11.0,46,0.00,,,-99.99,,2013-03-10 03:11:00,
2013-03-09 22:22:00,52.0,32.0,-100.00,SSE,160,4.0,11.0,46,0.00,,,-99.99,,2013-03-10 03:22:00,
2013-03-09 22:32:00,52.0,32.0,-100.00,SSE,160,4.0,11.0,46,0.00,,,-99.99,,2013-03-10 03:32:00,
2013-03-09 22:42:00,52.0,32.0,-100.00,SSE,160,4.0,11.0,46,0.00,,,-99.99,,2013-03-10 03:42:00,